[[{"header":{"parameterUnit":"m.s-1","parameterCategory":1,"la1":30.2991,"la2":30.254,"lo1":-89.0895,"lo2":-89.0444,"dy":0.0017,"dx":0.0017,"nx":28,"ny":28,"refTime":"2025-05-25T21:00:00:Z","depth":0,"parameterNumber":2,"parameterNumberName":"U-component_of_WINDS"},"data":[0,0,0,0,0,0,0,0,0,0,0,0,0,0,0,0,0,0,0,0,0,0,0,0,0,0,0,0,0,0,0,0,0,0,0,0,0,0,0,0,0,0,0,0,0,0,0,0,0,0,0,0,0,0,0,0,0,0,0.3945,0.3947,0,0.4076,0.4077,0.4079,0.4133,0.4132,0.4132,0.4132,0.4267,0.4271,0.4275,0,0,0,0,0,0,0,0,0,0,0,0,0,0.3743,0.3746,0.3945,0.3947,0.3948,0.4076,0.4077,0.4079,0.4133,0.4132,0.4132,0.4132,0.4266,0.4271,0.4275,0,0,0,0,0,0,0,0,0,0,0,0,0,0.3848,0.3747,0.3945,0.399,0.3996,0.4075,0.4077,0.408,0.4133,0.4132,0.4132,0.4132,0.4265,0.427,0.4276,0.432,0,0,0.4294,0.4296,0,0,0,0,0,0,0,0,0.3842,0.3855,0.3982,0.3987,0.3994,0.4088,0.4056,0.416,0.4133,0.4081,0.4132,0.4131,0.4208,0.4218,0.4244,0.4327,0.4332,0.4294,0.4298,0.43,0.4302,0,0,0,0,0,0,0,0.3834,0.385,0.3997,0.3984,0.3991,0.4005,0.4019,0.4076,0.4145,0.4085,0.409,0.4104,0.4211,0.4238,0.4247,0.4334,0.4294,0.4299,0.4303,0.4305,0.446,0.446,0,0,0,0,0,0,0.3819,0.3843,0.3993,0.4001,0.3915,0.4009,0.4025,0.4058,0.4145,0.4158,0.4104,0.4106,0.4228,0.4241,0.4252,0.431,0.43,0.4306,0.4309,0.4459,0.446,0.4461,0,0,0,0,0,0,0.3815,0.3832,0.3987,0.3923,0.3944,0.4013,0.4049,0.4061,0.4088,0.4159,0.4172,0.4119,0.4229,0.4244,0.4303,0.4315,0.4308,0.4313,0.4458,0.4459,0.446,0.4425,0,0,0,0,0,0,0.3809,0.383,0.3848,0.3923,0.3947,0.4035,0.405,0.4063,0.4097,0.4101,0.4177,0.4189,0.4229,0.4294,0.4309,0.4323,0.4318,0.4458,0.4459,0.446,0.4426,0.4425,0.4424,0,0,0,0,0,0.3801,0.3833,0.3848,0.3866,0.397,0.4036,0.405,0.4095,0.4098,0.4116,0.4162,0.4186,0.4311,0.4299,0.4316,0.4333,0.4457,0.4458,0.446,0.4426,0.4425,0.4424,0,0,0,0,0,0,0.3758,0.3844,0.3862,0.3919,0.3969,0.4045,0.4069,0.4093,0.4145,0.4146,0.4201,0.4218,0.4272,0.4308,0.4293,0.438,0.4386,0.4391,0.4355,0.4354,0.4354,0.4344,0.4323,0,0,0,0,0,0.3754,0.38,0.3873,0.3916,0.3941,0.4,0.4031,0.4061,0.4116,0.4138,0.4189,0.4241,0.4293,0.4326,0.4377,0.4431,0.4448,0.4451,0.445,0.4449,0.4453,0.4484,0.4486,0.4465,0.4465,0.4465,0,0,0.3749,0.3801,0.3827,0.3909,0.3952,0.3998,0.4018,0.4066,0.4101,0.4146,0.4204,0.4243,0.4305,0.4362,0.4389,0.4394,0.4462,0.4451,0.445,0.4454,0.4486,0.4488,0.4489,0.4466,0.4466,0.4466,0,0,0.3762,0.3806,0.3847,0.3889,0.3954,0.3993,0.4003,0.4075,0.4102,0.4161,0.4195,0.4238,0.4325,0.4368,0.4402,0.443,0.4454,0.4445,0.4442,0.4472,0.4473,0.4475,0.4486,0.4489,0.4449,0.4448,0.4448,0,0.3747,0.3817,0.3865,0.3911,0.3946,0.3988,0.403,0.4069,0.4147,0.417,0.4174,0.4284,0.4329,0.4396,0.4403,0.4429,0.4442,0.4437,0.4469,0.4472,0.4474,0.4484,0.4488,0.4447,0.4447,0.4447,0.4447,0,0.3796,0.3844,0.3869,0.3943,0.3981,0.4025,0.4079,0.4111,0.4138,0.4177,0.4237,0.4292,0.4355,0.4373,0.4401,0.4444,0.4445,0.4458,0.4466,0.4474,0.4484,0.4489,0.4445,0.4445,0.4446,0.4446,0,0,0.3785,0.3884,0.3893,0.3927,0.4001,0.4039,0.4085,0.4146,0.4173,0.4225,0.4265,0.4337,0.435,0.4387,0.442,0.4446,0.4465,0.4456,0.4459,0.4456,0.4516,0.4506,0.451,0.4481,0.4482,0.4483,0.4511,0,0.3809,0.3892,0.3936,0.4,0.4046,0.4086,0.4125,0.4175,0.4212,0.4256,0.4298,0.4348,0.4361,0.4384,0.4411,0.4457,0.4478,0.4455,0.4519,0.4521,0.4502,0.4516,0.4505,0.4529,0.4516,0.4516,0.4517,0,0.3847,0.3898,0.3967,0.4036,0.4057,0.4091,0.4151,0.4192,0.4249,0.4275,0.4316,0.4348,0.4398,0.44,0.447,0.4453,0.4482,0.4508,0.451,0.4518,0.452,0.4524,0.4538,0.4542,0.4524,0.4523,0.4523,0,0.3833,0.3919,0.3972,0.3999,0.4081,0.4104,0.4139,0.4196,0.4229,0.4281,0.4304,0.4361,0.4392,0.4435,0.4482,0.4479,0.4546,0.4553,0.4569,0.4568,0.4582,0.4581,0.4601,0.4599,0.4599,0.4599,0.4599,0,0.3855,0.3895,0.3966,0.3999,0.4045,0.4095,0.414,0.4178,0.4228,0.4269,0.4306,0.4344,0.4402,0.4447,0.4484,0.4535,0.4549,0.4571,0.4581,0.4568,0.4565,0.4588,0.4588,0.46,0.46,0.46,0.46,0,0.3847,0.3896,0.3956,0.4028,0.4047,0.4078,0.4139,0.4172,0.4211,0.4262,0.4277,0.4338,0.4392,0.4442,0.4515,0.4539,0.4592,0.4604,0.4572,0.4578,0.4591,0.4589,0.4627,0.4635,0.4627,0.4627,0.4627,0,0.3858,0.389,0.3965,0.3995,0.4029,0.4076,0.4111,0.4161,0.4195,0.4262,0.4287,0.4344,0.4392,0.4477,0.4528,0.4584,0.4597,0.4607,0.4606,0.4592,0.4598,0.4595,0.4599,0.4606,0.4606,0.4606,0.4606,0,0.3872,0.3895,0.3943,0.3999,0.4039,0.4086,0.4134,0.4156,0.4216,0.4252,0.4308,0.4345,0.4419,0.4475,0.4536,0.4573,0.4599,0.4605,0.4612,0.46,0.4581,0.4591,0.4571,0.4604,0.4604,0.4605,0.4605,0.4605,0.3875,0.3905,0.3962,0.4014,0.4056,0.41,0.4134,0.4177,0.4224,0.4288,0.4314,0.4371,0.4427,0.4512,0.4548,0.4593,0.4598,0.4608,0.4611,0.4612,0.461,0.4573,0.4604,0.4604,0.4604,0.4604,0.4604,0,0.3891,0.3929,0.3977,0.4043,0.4084,0.4104,0.4159,0.4192,0.4241,0.4291,0.4337,0.4401,0.4455,0.451,0.4568,0.4593,0.4607,0.4607,0.4606,0.4613,0.4602,0.459,0.4595,0.4595,0.4595,0.4595,0.4595,0.4595,0.3904,0.3956,0.3986,0.4059,0.4098,0.4153,0.4182,0.4223,0.4263,0.4332,0.4378,0.4413,0.4465,0.4526,0.4577,0.4592,0.4611,0.4608,0.4626,0.4614,0.4614,0.4615,0.4604,0.4612,0.4612,0.4634,0.4634,0.4635]},{"header":{"parameterUnit":"m.s-1","parameterCategory":1,"la1":30.2991,"la2":30.254,"lo1":-89.0895,"lo2":-89.0444,"dy":0.0017,"dx":0.0017,"nx":28,"ny":28,"refTime":"2025-05-25T21:00:00:Z","depth":0,"parameterNumber":3,"parameterNumberName":"V-component_of_WINDS"},"data":[0,0,0,0,0,0,0,0,0,0,0,0,0,0,0,0,0,0,0,0,0,0,0,0,0,0,0,0,0,0,0,0,0,0,0,0,0,0,0,0,0,0,0,0,0,0,0,0,0,0,0,0,0,0,0,0,0,0,3.6655,3.6655,0,3.6594,3.6593,3.6592,3.6585,3.6586,3.6586,3.6587,3.6516,3.6514,3.6511,0,0,0,0,0,0,0,0,0,0,0,0,0,3.676,3.6758,3.6655,3.6655,3.6654,3.6594,3.6593,3.6592,3.6585,3.6586,3.6586,3.6587,3.6517,3.6514,3.6511,0,0,0,0,0,0,0,0,0,0,0,0,0,3.6708,3.6757,3.6655,3.6643,3.6641,3.6594,3.6593,3.6592,3.6585,3.6586,3.6587,3.6587,3.6518,3.6514,3.6511,3.6469,0,0,3.6499,3.6498,0,0,0,0,0,0,0,0,3.6711,3.6704,3.6646,3.6644,3.6642,3.6598,3.6604,3.655,3.6584,3.6606,3.6587,3.6588,3.6542,3.6536,3.6523,3.6465,3.6462,3.6499,3.6497,3.6495,3.6494,0,0,0,0,0,0,0,3.6714,3.6707,3.6631,3.6645,3.6643,3.6638,3.6632,3.6594,3.6569,3.6604,3.6604,3.6597,3.6541,3.6526,3.6521,3.6461,3.6499,3.6496,3.6493,3.6492,3.6366,3.6365,0,0,0,0,0,0,3.6721,3.671,3.6633,3.6629,3.668,3.6636,3.6629,3.6611,3.657,3.6564,3.6596,3.6597,3.6532,3.6525,3.6518,3.6467,3.6495,3.6492,3.6489,3.6367,3.6366,3.6365,0,0,0,0,0,0,3.6724,3.6715,3.6635,3.6669,3.6659,3.6633,3.6613,3.6609,3.6594,3.6564,3.6558,3.6586,3.6532,3.6523,3.6482,3.6464,3.649,3.6487,3.6369,3.6367,3.6365,3.6363,0,0,0,0,0,0,3.6727,3.6715,3.6701,3.6669,3.6657,3.6602,3.6612,3.6607,3.6589,3.6589,3.6552,3.6547,3.6533,3.6487,3.6478,3.6459,3.6484,3.637,3.6368,3.6366,3.6364,3.6361,3.6359,0,0,0,0,0,3.673,3.6701,3.67,3.6691,3.6639,3.6601,3.6593,3.6579,3.6588,3.6572,3.6552,3.6548,3.6468,3.6483,3.6472,3.6452,3.6371,3.6369,3.6366,3.6366,3.6362,3.6359,0,0,0,0,0,0,3.6728,3.6696,3.6695,3.6655,3.6631,3.66,3.6579,3.6576,3.6547,3.6548,3.6529,3.6521,3.648,3.6462,3.648,3.641,3.642,3.6415,3.6423,3.6419,3.6416,3.6421,3.6481,0,0,0,0,0,3.6724,3.6698,3.667,3.6637,3.6626,3.6605,3.6587,3.6579,3.6552,3.6541,3.6518,3.649,3.6459,3.6438,3.6407,3.6362,3.6353,3.6343,3.634,3.6338,3.6334,3.6308,3.6303,3.6357,3.6357,3.6357,0,0,3.6713,3.6692,3.6677,3.6637,3.6617,3.6589,3.6596,3.6565,3.6543,3.6535,3.6495,3.6478,3.6445,3.6402,3.6381,3.6385,3.6317,3.6335,3.6333,3.633,3.6305,3.63,3.6295,3.6355,3.6355,3.6355,0,0,3.6679,3.6661,3.6632,3.6613,3.6584,3.657,3.6563,3.6533,3.6521,3.6481,3.6475,3.6447,3.6393,3.6371,3.6352,3.631,3.6306,3.63,3.6285,3.6261,3.6256,3.6252,3.6237,3.6232,3.6297,3.6297,3.6297,0,3.6668,3.6628,3.6617,3.6587,3.6569,3.6564,3.6533,3.6514,3.6475,3.6462,3.6468,3.64,3.6378,3.6329,3.6319,3.6304,3.6294,3.6304,3.6258,3.6254,3.625,3.6236,3.623,3.6296,3.6296,3.6296,3.6296,0,3.6616,3.6588,3.6567,3.6534,3.6513,3.6483,3.6465,3.6446,3.6439,3.6424,3.6383,3.6356,3.632,3.6307,3.6299,3.6257,3.6261,3.6263,3.6272,3.6245,3.6231,3.6225,3.6295,3.6296,3.6296,3.6296,0,0,3.6578,3.654,3.6533,3.6517,3.6486,3.6462,3.6431,3.6399,3.6382,3.6355,3.6328,3.6283,3.6285,3.6263,3.6253,3.6231,3.62,3.6236,3.6235,3.623,3.615,3.6149,3.6143,3.6197,3.6196,3.6195,3.6153,0,3.654,3.6488,3.6477,3.6431,3.6404,3.6399,3.6371,3.6348,3.6333,3.6306,3.6289,3.6257,3.6263,3.625,3.6228,3.6208,3.6183,3.6211,3.6169,3.6168,3.6177,3.6135,3.6134,3.6096,3.6148,3.6147,3.6146,0,3.6489,3.6465,3.6417,3.6389,3.6377,3.6354,3.6323,3.6298,3.627,3.6261,3.6238,3.623,3.6195,3.6208,3.6159,3.6178,3.616,3.6147,3.6146,3.6141,3.6155,3.6129,3.6083,3.6078,3.6137,3.6138,3.6138,0,3.6466,3.6421,3.6386,3.6373,3.634,3.6324,3.6308,3.6282,3.6263,3.6236,3.6223,3.619,3.6172,3.6146,3.6129,3.614,3.6081,3.6092,3.6071,3.6072,3.6059,3.606,3.6009,3.6048,3.6048,3.6048,3.6048,0,3.6425,3.6396,3.6376,3.6355,3.6321,3.6308,3.6274,3.6259,3.6236,3.621,3.6202,3.6177,3.6156,3.6128,3.6113,3.6075,3.6067,3.6057,3.6053,3.6057,3.6059,3.6045,3.6047,3.6046,3.6047,3.6047,3.6047,0,3.6394,3.638,3.6342,3.6314,3.6307,3.6283,3.6258,3.6236,3.6222,3.6189,3.618,3.6157,3.6123,3.6104,3.606,3.6051,3.6008,3.6006,3.6018,3.6016,3.5997,3.5999,3.5935,3.5926,3.5971,3.5971,3.597,0,3.6368,3.6346,3.6317,3.6301,3.6286,3.6259,3.6241,3.6226,3.6207,3.6174,3.6156,3.6123,3.6095,3.6041,3.6018,3.5985,3.5982,3.5962,3.5976,3.5982,3.5981,3.5983,3.598,3.5959,3.5959,3.5959,3.5958,0,3.6325,3.6319,3.6294,3.6267,3.6246,3.6223,3.62,3.6186,3.6167,3.6145,3.6113,3.6092,3.6049,3.6015,3.598,3.5962,3.5956,3.5954,3.5947,3.5951,3.5959,3.5955,3.6011,3.5955,3.5956,3.5956,3.5956,3.5956,3.6295,3.6275,3.6252,3.6225,3.6207,3.6185,3.6164,3.6148,3.6121,3.6087,3.6079,3.6045,3.6017,3.597,3.5951,3.5922,3.5925,3.5915,3.5913,3.5911,3.591,3.5965,3.5915,3.5915,3.5915,3.5915,3.5915,0,3.6251,3.6237,3.6211,3.6181,3.6159,3.6159,3.6133,3.6114,3.6084,3.606,3.6034,3.5996,3.5963,3.5939,3.5905,3.5887,3.5883,3.5878,3.5879,3.5875,3.5909,3.5918,3.5882,3.5882,3.5882,3.5882,3.5882,3.5882,3.6226,3.6192,3.6184,3.6141,3.6125,3.6094,3.6079,3.6059,3.604,3.5999,3.5973,3.5958,3.5933,3.5898,3.5867,3.5861,3.5848,3.5844,3.5836,3.5869,3.5872,3.5876,3.5884,3.5841,3.5841,3.5805,3.5804,3.5804]}]]